{"data":{"norad_id":58063,"intl_designator":"2023-158N","name":"STARLINK-30585","alt_names":[],"object_type":"PAYLOAD","status":"ACTIVE","operator":null,"country":"US","launch_date":"2023-10-13","launch_site_code":"AFETR","launch_vehicle":null,"mission":null,"orbit_class":"UNKNOWN","rcs_meters":null,"size_class":null,"mass_kg":null,"dimensions":null,"purposes":["comms"],"wikipedia_slug":null,"has_3d_model":false,"image_url":null,"decayed_at":null,"tle_current":{"epoch":"2026-05-24T21:27:42.519168Z","epoch_age_seconds":80263,"freshness":"FRESH","line1":"1 58063U 23158N   26144.89424212 -.00007216  00000+0 -25270-3 0  9996","line2":"2 58063  43.0042 316.7577 0001776 272.4197  87.6451 15.27609400145225","mean_motion":15.276094,"eccentricity":0.0001776,"inclination_deg":43.0042,"raan_deg":316.7577,"arg_perigee_deg":272.4197,"mean_anomaly_deg":87.6451,"bstar":-0.0002527,"rev_number":14522,"period_min":94.26493447867,"perigee_km":481.74253225893,"apogee_km":484.179594291,"semimajor_km":6861.098063275,"source":"CELESTRAK","updated_at":"2026-05-25T13:38:18.501359Z"}}}